Regional Weather Roundup
Issued by NWS Little Rock, AR

Home | Current Version | Previous Version | Text Only | Print | Product List | Glossary On
Versions: 1 2 3 4 5 6 7 8 9 10 11 12 13 14 15 16 17 18 19 20 21 22 23 24 25 26 27 28 29 30 31
000
ASUS44 KLZK 181705
RWRLZK

WEATHER ROUNDUP FOR ARKANSAS
NATIONAL WEATHER SERVICE LITTLE ROCK AR
1100 AM CST SAT NOV 18 2017

NOTE: "FAIR" INDICATES FEW OR NO CLOUDS BELOW 12,000 FEET WITH NO
SIGNIFICANT WEATHER AND/OR OBSTRUCTIONS TO VISIBILITY.

ARZ001-003-010-029-181800-
NORTHWEST ARKANSAS

CITY           SKY/WX    TMP DP  RH WIND       PRES   REMARKS
FAYETTEVILLE   CLOUDY    49  46  90 NW24G43   29.81R
FORT SMITH     CLOUDY    58  48  69 NW24G33   29.81R
HARRISON       LGT RAIN  53  51  93 NW18G33   29.70R FOG
BENTONVILLE    LGT RAIN  47  45  93 NW14G22   29.84R FOG
ROGERS         LGT RAIN  46  45  96 NW18G24   29.82R FOG
SILOAM SPGS    LGT RAIN  47  45  93 NW22G29   29.86R
HIGHFILL       CLOUDY    48  46  93 NW17G26   29.84R
SPRINGDALE     PTSUNNY   48  46  93 NW21G36   29.82R FOG
$$

ARZ004-005-016-181800-
NORTH CENTRAL ARKANSAS

CITY           SKY/WX    TMP DP  RH WIND       PRES   REMARKS
BATESVILLE     PTSUNNY   78  63  59 SW24G32   29.53F
FLIPPIN        PTSUNNY   64  53  67 W22G41    29.64R
MTN HOME       CLOUDY    63  54  72 NW15G30   29.60R
$$

ARZ040-041-181800-
WEST CENTRAL ARKANSAS

CITY           SKY/WX    TMP DP  RH WIND       PRES   REMARKS
MENA           MOSUNNY   63  52  67 NW16G33   29.80R
MOUNT IDA      MOSUNNY   71  53  52 NW18G31   29.69R
$$

ARZ009-017-025-026-028-181800-
NORTHEAST ARKANSAS

CITY           SKY/WX    TMP DP  RH WIND       PRES   REMARKS
JONESBORO      CLOUDY    73  65  75 SW25G37   29.52F
NEWPORT        CLOUDY    73  64  73 SW25      29.52S
WALNUT RIDGE   MOSUNNY   75  65  70 SW24G30   29.49F
BLYTHEVILLE    CLOUDY    73  64  73 SW33G40   29.54F
$$

ARZ022-023-033-042-044-181800-
CENTRAL ARKANSAS

CITY           SKY/WX    TMP DP  RH WIND       PRES   REMARKS
LITTLE ROCK    PTSUNNY   77  65  66 SW17      29.61S
N LITTLE ROCK    N/A     76  65  69 W10G23    29.60F
JACKSONVILLE   SUNNY     78  65  62 SW24G30   29.58S
SEARCY         CLOUDY    77  66  68 SW16G23   29.56F
HOT SPRINGS    MOSUNNY   80  63  55 W18G36    29.64F
RUSSELLVILLE   SUNNY     72  51  47 W30G44    29.64R
CLINTON        PTSUNNY   79  59  50 W21G29    29.56S
$$

ARZ036-181800-
EAST ARKANSAS

CITY           SKY/WX    TMP DP  RH WIND       PRES   REMARKS
WEST MEMPHIS   LGT RAIN  70  65  84 S17G28    29.60F
$$

ARZ050-053-066-070-073-181800-
SOUTHWEST ARKANSAS

CITY           SKY/WX    TMP DP  RH WIND       PRES   REMARKS
ARKADELPHIA    PTSUNNY   78  66  66 W14G23    29.67S
CAMDEN         CLOUDY    81  63  54 SW16G23   29.68F
TEXARKANA      PTSUNNY   77  61  57 W20G32    29.72R
EL DORADO      CLOUDY    76  66  71 SW16G22   29.74S
DE QUEEN       LGT RAIN  69  50  50 NW20G31   29.76R
$$

ARZ056-057-069-181800-
SOUTHEAST ARKANSAS

CITY           SKY/WX    TMP DP  RH WIND       PRES   REMARKS
PINE BLUFF     PTSUNNY   77  63  61 SW25G31   29.65S
STUTTGART      PTSUNNY   76  64  66 SW26G32   29.61F
MONTICELLO     LGT RAIN  75  63  66 SW15G26   29.69S

$$






USA.gov is the U.S. government's official web portal to all federal, state and local government web resources and services.